Regional Weather Roundup
Issued by NWS Northern Indiana

Home | Current Version | Previous Version | Graphics & Text | Print | Product List | Glossary On
Versions: 1 2 3 4 5 6 7 8 9 10 11 12 13 14 15 16 17 18 19 20 21 22 23 24 25 26 27 28 29 30 31 32 33 34 35 36 37 38 39 40 41 42 43 44 45 46 47 48 49 50
000
ASUS43 KIWX 271700
RWRIWX

KIWX WEATHER ROUNDUP
NATIONAL WEATHER SERVICE NORTHERN INDIANA
100 PM EDT SUN JUL 27 2014

NOTE: "FAIR" INDICATES FEW OR NO CLOUDS BELOW 12,000 FEET WITH NO
SIGNIFICANT WEATHER AND/OR OBSTRUCTIONS TO VISIBILITY.

* THESE STATIONS ARE NOT UNDER NWS QUALITY CONTROL. THEY ALSO MAY NOT
  REPORT WEATHER SUCH AS PRECIPITATION OR FOG.

INZ001>027-271800-
NORTHERN INDIANA

CITY           SKY/WX    TMP DP  RH WIND       PRES   REMARKS
GARY*          MOSUNNY   86  64  48 SW12      29.74F
VALPARAISO     SUNNY     84  67  56 W10       29.75F
SOUTH BEND     PTSUNNY   83  66  56 VRB6      29.74F
ELKHART*       MOSUNNY   82  66  57 W9        29.74
GOSHEN         PTSUNNY   81  69  67 W8        29.73F
ANGOLA*        MOSUNNY   84  70  61 W8        29.73F
FORT WAYNE     CLOUDY    74  70  87 SW13      29.76F
PERU/GRISSOM   CLOUDY    73  73 100 W10       29.78S

$$
INZ028>050-271800-
CENTRAL INDIANA

CITY           SKY/WX    TMP DP  RH WIND       PRES   REMARKS
LAFAYETTE      PTSUNNY   79  72  79 SW7       29.78F
KOKOMO*        CLOUDY    75  72  88 W12       29.78S
MUNCIE*        CLOUDY    77  70  79 SW7       29.77F
INDIANAPOLIS   CLOUDY    74  71  91 S8        29.79S

$$
MIZ043>046-050>051-056>058-064>065-071>073-077>080-271800-
SOUTHWEST LOWER MICHIGAN

CITY           SKY/WX    TMP DP  RH WIND       PRES   REMARKS
BATTLE CREEK   MOSUNNY   83  67  58 SW13      29.72F
BENTON HARBOR  MOSUNNY   79  70  74 W13       29.73S
COLDWATER*     PTSUNNY   81  69  67 SW6       29.73F
HILLSDALE*     MOSUNNY   82  67  60 SW7       29.73F
HOLLAND        MOSUNNY   80  70  71 W12       29.72F
GRAND RAPIDS   PTSUNNY   81  72  74 SW12      29.70F
KALAMAZOO      PTSUNNY   82  67  60 SW8       29.72F
STURGIS*       MOSUNNY   81  70  69 W7        29.73F
THREE RIVERS*  FAIR      83  71  65 W8        29.72F

$$
OHZ001>008-015>018-024>025-271800-
NORTHWEST OHIO

CITY           SKY/WX    TMP DP  RH WIND       PRES   REMARKS
DEFIANCE       CLOUDY    82  71  69 S15G21    29.73F
FINDLAY        CLOUDY    77  68  73 SW14      29.74S
TOLEDO EXPRESS PTSUNNY   81  70  69 VRB7      29.73S
TOLEDO METCALF PTSUNNY   82  70  66 S12       29.73F
LIMA           LGT RAIN  71  67  87 S7        29.78R FOG

$$
&&


USA.gov is the U.S. government's official web portal to all federal, state and local government web resources and services.